Wind_Speed
8 6 5 6 9 10 10 11 15 15 16 19 18 17 18 19 19 20 18 15 12 10 9 10 11 12 13 14 15 15 15 14 13 11 10 10 9 7 6 5 3 2 1 1
8 5 5 8 11 10 11 13 15 16 17 18 16 15 15 17 17 18 18 15 12 10 9 8 10 11 12 13 14 16 15 13 13 11 10 10 9 8 7 5 4 3 3 2
10 7 8 12 13 11 13 14 15 16 14 15 16 16 15 15 17 17 17 15 12 10 8 7 6 7 9 11 12 14 14 14 14 12 11 9 8 8 7 6 5 4 4 2
10 9 12 14 14 13 14 14 16 15 14 15 13 14 15 15 15 16 16 15 12 10 9 7 5 5 7 9 11 13 14 14 14 12 11 10 9 8 8 7 6 5 4 3
10 10 13 15 15 14 14 14 14 14 16 15 13 12 12 15 15 15 16 14 11 10 9 7 4 5 7 8 10 11 13 14 13 12 11 11 11 9 9 8 7 6 5 4
13 14 16 17 16 15 14 14 13 16 19 16 13 11 11 15 15 16 16 14 11 9 8 7 4 4 6 8 9 11 12 13 12 11 11 12 11 10 10 9 8 7 6 5
12 14 16 18 16 14 14 15 16 17 20 19 17 12 11 14 15 15 15 14 11 9 8 7 5 4 5 7 9 10 12 11 11 11 11 12 12 11 11 10 9 8 8 7
13 14 13 14 15 15 14 15 17 18 17 18 16 14 13 13 14 14 14 13 11 8 8 7 6 4 4 6 8 9 10 10 11 11 12 13 13 12 12 11 11 10 10 9
14 16 15 14 15 15 16 15 16 18 16 17 16 15 14 12 13 15 14 13 11 9 8 7 6 5 4 4 6 8 10 10 11 11 12 13 13 13 13 13 13 12 12 11
16 18 17 17 17 17 17 16 15 15 15 14 17 20 16 14 14 14 13 13 11 9 8 8 7 5 5 4 6 8 9 10 11 13 13 12 12 13 14 14 14 14 14 14
19 22 19 19 19 18 18 18 16 14 15 15 18 21 18 16 14 14 13 13 12 10 8 8 8 7 6 6 6 7 9 10 12 12 12 12 13 14 15 15 15 16 16 17
23 25 24 22 23 23 21 19 17 16 15 14 15 21 18 14 12 14 14 14 12 11 10 10 9 8 7 6 7 7 8 10 11 12 13 14 15 16 16 16 17 18 18 19
26 28 27 23 24 24 22 19 17 16 16 14 16 21 19 15 15 13 14 15 14 13 12 12 11 10 9 8 8 9 9 10 11 13 14 15 16 17 17 18 19 20 20 21
29 31 28 23 24 24 20 18 19 17 16 16 18 20 21 18 16 15 16 17 16 15 14 14 13 12 11 11 11 10 11 12 12 13 15 16 17 17 18 19 20 22 23 23
30 31 28 25 24 23 20 16 15 15 15 15 19 21 23 22 21 19 19 19 18 18 17 16 15 14 13 13 13 14 14 14 15 15 16 17 18 19 20 21 22 23 24 25
31 31 29 26 23 22 21 16 14 15 16 16 19 22 23 24 22 21 21 19 19 19 18 18 18 18 17 16 17 17 18 18 19 19 20 21 21 22 23 24 24 25 27 28
34 32 31 27 23 23 22 19 18 19 19 19 22 24 24 24 23 21 20 19 19 20 20 20 20 20 20 20 20 20 21 22 22 23 24 25 25 26 27 27 28 29 30 30
32 31 31 28 26 26 23 24 23 21 21 23 26 26 25 25 24 24 23 21 21 21 21 22 22 23 23 23 24 24 25 26 26 27 28 29 30 31 31 31 31 32 31 32
33 29 30 28 27 26 25 24 25 24 23 24 25 24 24 24 25 24 23 23 22 22 22 23 24 24 25 25 26 26 27 29 30 30 30 30 31 33 34 33 33 33 34 35
31 30 30 29 27 26 27 26 25 24 24 24 25 26 26 26 25 23 22 22 22 23 23 24 24 25 26 27 28 29 29 31 32 32 31 32 32 33 33 34 34 35 35 36
26 27 28 28 27 28 29 27 25 26 27 26 24 24 24 24 24 22 22 22 23 23 24 25 26 26 27 28 28 29 30 31 32 32 33 34 35 36 36 37 36 36 36 37
29 29 29 29 29 31 31 27 26 26 25 22 22 24 23 24 24 23 23 24 24 24 25 25 26 27 28 28 29 29 30 32 33 34 34 35 35 36 36 36 35 36 37 38
29 30 28 29 30 30 28 26 24 23 24 24 24 25 25 26 25 25 25 25 25 26 26 26 26 27 28 29 30 30 30 31 33 34 35 36 35 35 35 36 37 38 38 38
22 24 25 23 24 25 25 26 25 24 24 26 26 26 26 27 27 26 26 26 26 27 27 28 28 28 29 29 30 31 31 31 32 34 34 34 34 35 36 36 36 37 37 38
12 15 19 23 23 21 23 23 22 22 24 25 25 26 26 27 27 27 27 27 28 28 29 29 29 29 29 29 29 30 30 31 31 31 32 32 33 34 34 35 36 37 39 41
13 14 17 19 20 21 22 22 22 23 24 24 25 25 26 26 27 27 27 27 28 29 29 29 29 29 30 30 30 31 31 32 32 32 33 34 35 35 36 37 38 40 41 42
Wind_Direction
291 300 326 318 300 296 302 307 307 310 310 317 324 330 333 335 340 338 336 336 331 316 295 273 260 245 235 231 229 232 234 235 234 232 228 225 219 223 221 213 204 195 171 138
282 283 295 285 283 294 302 303 309 311 312 322 326 327 328 331 337 341 342 340 339 325 313 290 262 244 234 232 230 230 231 234 229 225 225 224 219 218 215 205 199 192 172 153
272 267 272 278 284 291 294 298 302 308 314 314 321 325 324 334 339 343 346 344 339 332 323 314 278 243 229 227 228 230 231 232 227 226 222 219 215 214 211 203 199 190 179 166
255 244 254 268 278 287 290 293 298 307 307 300 308 307 318 333 336 342 347 347 344 339 337 324 282 245 231 229 230 231 229 229 224 216 216 216 211 207 205 203 199 193 188 183
245 245 258 265 273 278 284 288 295 301 295 292 303 308 315 327 332 335 342 342 341 341 344 341 304 258 241 231 226 227 225 220 218 216 214 211 208 206 206 206 205 203 205 205
245 237 245 257 268 279 287 293 303 311 311 311 322 321 312 319 325 329 334 336 334 335 342 348 325 276 246 233 227 230 227 222 222 218 213 210 209 210 210 212 212 214 219 224
250 243 243 246 260 274 284 294 303 309 320 329 327 311 302 315 322 323 327 329 329 331 335 343 342 310 258 238 231 227 225 221 217 214 213 216 217 214 214 218 221 225 231 237
251 260 267 262 258 267 275 288 296 302 309 310 304 295 294 307 319 324 323 325 325 324 330 334 339 326 286 243 230 222 219 221 221 219 222 224 222 219 221 227 230 233 239 245
241 258 268 269 266 269 273 278 286 292 299 301 300 289 282 301 312 320 321 319 320 319 321 324 329 327 309 249 236 230 225 228 227 226 228 226 224 226 230 235 237 241 246 252
230 242 254 265 266 268 271 275 278 280 286 295 299 298 302 312 312 320 318 314 309 309 312 316 321 319 307 280 248 239 237 238 234 230 231 230 232 234 239 241 243 248 254 258
237 241 244 255 263 265 270 274 273 272 271 278 293 301 305 309 312 320 316 308 307 299 299 301 305 305 304 288 271 251 244 242 236 234 234 236 239 242 246 245 249 254 259 263
236 242 242 246 257 259 258 259 266 272 273 273 279 286 290 294 296 309 308 300 301 294 293 293 295 292 293 283 268 261 254 251 244 242 242 244 247 249 249 251 254 258 262 266
230 238 242 247 255 256 259 251 253 265 270 272 273 279 282 291 289 291 298 301 299 295 292 293 288 282 283 283 274 264 257 256 253 250 249 251 253 253 255 257 259 263 266 269
228 236 240 242 255 264 267 261 251 253 262 266 274 279 283 281 284 286 293 296 297 296 292 290 288 282 278 277 276 274 268 263 261 258 256 256 257 258 260 262 264 267 269 271
231 238 242 243 252 263 272 276 260 252 258 263 274 279 283 283 286 289 291 292 290 291 290 289 287 284 279 275 272 271 271 270 268 266 265 265 266 265 266 267 268 270 271 273
234 237 240 241 248 260 267 271 269 266 261 264 268 273 275 279 283 285 284 286 284 283 286 284 283 282 279 278 276 274 273 273 272 270 269 269 269 271 271 271 271 271 272 273
232 236 238 240 241 250 262 265 262 261 258 260 262 269 273 276 281 285 288 286 281 281 281 282 280 281 277 276 275 275 276 276 276 274 274 273 272 272 272 272 272 273 273 273
225 231 237 239 241 246 253 255 255 253 258 262 263 266 271 276 281 285 288 287 283 280 280 280 279 279 277 276 276 275 276 277 277 278 277 275 273 274 273 273 274 273 273 274
226 226 233 238 242 249 247 250 251 250 253 261 263 267 272 276 279 283 284 284 282 280 279 280 279 279 279 277 278 278 279 278 279 277 276 277 277 278 275 273 275 277 279 280
230 227 232 236 240 246 247 250 252 256 254 259 263 265 268 275 278 281 282 282 281 281 281 283 282 282 282 281 281 279 279 279 280 279 277 279 281 279 276 274 275 278 280 281
233 235 236 235 239 245 250 251 257 256 262 264 263 266 269 275 280 283 284 283 282 282 283 283 283 281 282 282 282 282 282 281 280 280 282 282 282 280 278 278 277 279 281 282
230 233 236 235 237 243 248 254 258 259 260 261 266 270 275 277 280 284 285 285 284 283 284 285 284 283 282 282 282 282 283 283 282 281 282 282 281 283 281 281 281 281 282 283
228 225 228 231 237 242 244 252 258 261 266 268 269 272 274 277 280 283 284 285 285 284 283 284 285 285 284 282 282 283 284 284 284 283 283 282 281 283 283 282 284 285 286 287
234 228 226 232 238 242 248 254 257 263 267 269 270 273 274 278 280 282 283 284 285 285 284 283 284 284 284 284 283 283 283 284 286 285 284 282 282 284 284 285 286 286 286 287
232 229 231 235 243 253 256 260 263 267 270 271 270 274 278 279 280 283 284 284 285 286 285 284 282 283 283 284 285 285 286 286 286 286 287 288 287 288 289 289 289 289 289 290
248 246 247 251 253 255 261 263 269 272 272 274 276 279 281 281 283 284 284 285 285 285 286 286 285 285 285 285 285 286 287 287 287 287 287 287 289 289 289 289 289 290 291 292
Height
5884 5885 5884 5885 5886 5886 5885 5884 5882 5879 5876 5874 5871 5867 5863 5859 5856 5852 5849 5846 5844 5841 5841 5841 5842 5843 5845 5847 5850 5854 5856 5859 5861 5864 5867 5869 5871 5872 5874 5875 5876 5877 5877 5878
5882 5882 5883 5884 5884 5884 5883 5882 5880 5878 5875 5872 5869 5866 5862 5858 5856 5853 5849 5846 5844 5842 5841 5840 5840 5842 5844 5845 5848 5852 5854 5857 5859 5862 5865 5867 5869 5871 5873 5874 5875 5876 5877 5878
5879 5881 5882 5883 5883 5882 5881 5879 5878 5876 5873 5870 5867 5864 5861 5858 5856 5853 5850 5846 5844 5842 5840 5840 5839 5840 5842 5844 5847 5849 5852 5854 5857 5860 5863 5866 5868 5870 5872 5873 5875 5875 5876 5877
5876 5879 5880 5881 5880 5880 5878 5877 5875 5873 5870 5867 5865 5862 5860 5857 5855 5852 5850 5847 5845 5843 5841 5839 5839 5840 5841 5843 5845 5847 5850 5852 5855 5858 5862 5864 5866 5868 5870 5872 5874 5875 5876 5877
5873 5876 5877 5877 5878 5877 5875 5874 5872 5869 5865 5862 5861 5858 5857 5855 5854 5852 5850 5848 5846 5844 5842 5840 5839 5839 5841 5842 5844 5846 5848 5851 5853 5857 5860 5862 5865 5867 5869 5871 5873 5874 5875 5876
5870 5872 5873 5874 5874 5874 5872 5871 5869 5866 5862 5858 5858 5857 5856 5854 5853 5852 5850 5848 5846 5844 5842 5841 5840 5839 5840 5841 5843 5845 5847 5850 5852 5855 5858 5861 5863 5865 5867 5869 5871 5873 5874 5875
5866 5867 5868 5869 5870 5870 5870 5868 5867 5865 5861 5858 5856 5855 5854 5853 5852 5851 5850 5848 5846 5844 5843 5841 5840 5839 5838 5840 5842 5844 5846 5848 5851 5853 5856 5859 5861 5864 5866 5868 5870 5871 5873 5874
5862 5864 5865 5865 5866 5867 5867 5866 5865 5863 5861 5859 5856 5853 5852 5851 5851 5850 5849 5847 5846 5845 5843 5842 5841 5840 5839 5839 5841 5843 5845 5847 5850 5852 5855 5857 5860 5862 5864 5866 5868 5869 5871 5871
5860 5861 5862 5862 5862 5863 5863 5863 5863 5861 5859 5857 5854 5851 5847 5848 5848 5848 5847 5846 5845 5844 5843 5842 5841 5840 5840 5840 5841 5842 5844 5846 5848 5851 5853 5855 5857 5859 5862 5864 5865 5867 5868 5869
5856 5858 5859 5858 5859 5859 5860 5860 5860 5858 5857 5855 5853 5848 5845 5845 5846 5846 5845 5845 5844 5844 5843 5842 5841 5841 5840 5840 5840 5841 5843 5845 5846 5849 5851 5853 5855 5857 5859 5861 5862 5864 5865 5866
5853 5854 5856 5856 5856 5856 5856 5856 5855 5855 5854 5853 5851 5849 5845 5844 5844 5844 5843 5843 5843 5842 5842 5841 5841 5840 5840 5839 5840 5840 5842 5843 5845 5846 5848 5851 5852 5854 5856 5857 5859 5860 5861 5862
5848 5850 5850 5852 5851 5850 5850 5850 5850 5850 5850 5850 5849 5849 5844 5843 5841 5842 5842 5841 5841 5840 5840 5840 5840 5839 5839 5839 5839 5840 5840 5841 5842 5844 5846 5848 5849 5851 5852 5854 5855 5856 5856 5857
5842 5843 5844 5847 5847 5844 5843 5844 5844 5845 5846 5847 5846 5845 5840 5838 5838 5838 5838 5839 5839 5839 5838 5838 5838 5838 5837 5838 5838 5838 5839 5839 5841 5842 5843 5844 5846 5847 5848 5849 5850 5851 5851 5852
5834 5836 5839 5841 5840 5838 5838 5839 5840 5841 5842 5843 5842 5838 5835 5835 5836 5835 5836 5836 5836 5836 5836 5836 5836 5836 5836 5836 5836 5836 5837 5837 5838 5839 5840 5841 5841 5842 5843 5844 5845 5845 5846 5846
5827 5829 5832 5834 5834 5834 5834 5835 5836 5836 5838 5839 5838 5835 5833 5831 5832 5833 5833 5833 5833 5833 5833 5833 5834 5833 5833 5833 5833 5833 5834 5834 5835 5835 5835 5836 5837 5837 5838 5838 5839 5839 5839 5839
5819 5823 5826 5828 5829 5829 5830 5831 5831 5833 5834 5834 5834 5832 5830 5828 5828 5828 5829 5829 5830 5829 5829 5829 5829 5829 5829 5829 5829 5829 5829 5830 5830 5830 5831 5831 5831 5831 5832 5832 5832 5832 5831 5831
5810 5815 5819 5822 5825 5824 5825 5827 5828 5828 5829 5829 5829 5827 5826 5824 5824 5823 5824 5825 5824 5825 5825 5825 5824 5823 5824 5824 5825 5825 5825 5825 5825 5824 5824 5824 5824 5824 5824 5824 5824 5823 5822 5822
5801 5807 5812 5815 5818 5819 5823 5821 5821 5822 5822 5823 5822 5821 5821 5820 5820 5820 5820 5820 5820 5820 5820 5820 5820 5819 5819 5819 5818 5819 5819 5818 5818 5817 5817 5817 5815 5816 5815 5815 5815 5814 5813 5812
5792 5798 5805 5809 5811 5812 5814 5813 5813 5815 5816 5815 5815 5815 5815 5815 5815 5816 5816 5816 5816 5815 5815 5815 5814 5813 5813 5813 5813 5811 5812 5810 5809 5808 5808 5808 5807 5806 5805 5806 5805 5805 5804 5803
5786 5792 5798 5801 5803 5805 5805 5806 5807 5810 5809 5809 5809 5809 5810 5810 5810 5811 5810 5810 5810 5810 5809 5809 5809 5808 5807 5807 5807 5806 5806 5804 5802 5801 5799 5800 5799 5797 5795 5796 5796 5796 5795 5794
5782 5785 5790 5794 5797 5797 5797 5799 5802 5804 5804 5804 5803 5802 5802 5804 5804 5805 5805 5805 5804 5804 5803 5803 5802 5802 5801 5800 5800 5799 5798 5797 5795 5793 5793 5792 5791 5789 5787 5787 5786 5785 5785 5784
5776 5780 5784 5788 5790 5792 5791 5793 5796 5797 5796 5796 5797 5797 5798 5798 5798 5799 5799 5799 5798 5797 5797 5796 5796 5795 5794 5793 5792 5791 5790 5789 5787 5786 5784 5783 5782 5780 5779 5778 5777 5775 5775 5774
5768 5772 5775 5779 5783 5783 5785 5787 5788 5789 5790 5791 5793 5792 5793 5793 5793 5793 5792 5792 5792 5791 5791 5790 5789 5788 5787 5785 5784 5783 5782 5780 5779 5777 5775 5773 5772 5772 5770 5769 5768 5766 5764 5762
5762 5764 5770 5773 5775 5777 5779 5781 5781 5783 5784 5785 5786 5786 5787 5787 5786 5786 5786 5786 5785 5784 5783 5782 5781 5780 5779 5778 5776 5775 5774 5772 5770 5768 5767 5765 5763 5762 5761 5759 5758 5756 5754 5752
5757 5761 5765 5767 5770 5771 5773 5775 5775 5777 5778 5779 5780 5780 5780 5781 5780 5780 5779 5779 5778 5777 5776 5774 5773 5772 5771 5770 5768 5767 5765 5763 5762 5759 5758 5756 5754 5753 5751 5749 5747 5745 5743 5740
5757 5760 5762 5764 5766 5768 5769 5769 5770 5771 5773 5773 5774 5774 5774 5774 5773 5772 5771 5771 5770 5769 5768 5766 5765 5764 5762 5761 5760 5758 5756 5755 5753 5751 5749 5747 5745 5743 5741 5739 5736 5733 5731 5728